RH
58 53 54 61 63 56 86 71 76 60 72 56 75 92 97 97 95 94 93 96 98 100 99 100 98 100 100 100 100 100 98 94 99 99 92 97 97 96 91 72 70 79 73 79
78 46 50 59 56 55 55 53 52 53 52 38 48 64 77 84 83 83 82 84 91 96 95 96 100 100 100 100 100 100 99 99 98 90 90 85 83 77 84 79 79 78 76 76
62 47 45 52 40 41 49 44 46 51 35 41 46 60 77 81 76 74 74 76 80 83 85 88 92 100 100 100 100 98 99 100 100 100 100 92 89 82 75 72 74 77 78 72
61 44 48 38 42 44 39 40 40 44 41 41 49 66 76 80 75 69 72 73 75 75 75 72 78 76 86 86 94 93 99 100 100 100 100 98 90 87 90 77 88 98 100 100
62 47 34 30 36 51 56 39 33 42 39 42 54 64 62 78 73 76 73 72 74 74 68 52 50 54 68 73 77 77 92 100 100 100 100 90 88 97 94 98 96 96 98 99
54 65 43 28 41 47 45 52 31 37 37 39 54 54 42 73 60 68 63 60 57 57 51 47 49 44 45 56 65 74 80 83 94 100 100 81 85 99 100 100 99 100 100 100
56 59 41 24 46 51 49 38 41 41 37 41 49 42 64 55 56 60 59 59 54 53 45 44 43 50 41 40 41 59 69 73 81 83 84 88 92 91 89 88 87 86 84 85
49 51 60 39 55 51 37 45 44 48 44 46 46 62 63 58 62 62 61 61 56 51 49 44 39 40 42 40 41 42 41 45 53 61 68 74 74 73 71 70 67 66 64 61
33 33 33 41 33 42 46 40 49 48 49 50 52 61 60 56 56 54 56 56 50 50 47 43 38 39 39 39 38 42 40 37 36 38 42 44 46 48 48 48 46 46 45 45
37 21 25 25 31 36 48 51 50 52 48 53 53 58 62 56 52 50 49 50 52 52 50 50 49 44 41 39 36 39 39 37 36 36 36 37 37 38 40 41 41 38 36 38
32 28 26 25 28 35 35 45 55 59 55 54 55 56 60 64 58 54 50 49 50 54 57 59 54 46 44 42 41 41 41 39 36 34 32 32 31 30 31 30 31 33 34 34
22 24 26 23 34 38 41 42 46 60 62 52 51 56 59 61 55 51 50 48 50 56 62 64 59 54 48 49 49 47 48 47 42 39 39 38 37 37 36 38 40 40 41 42
28 35 39 38 36 29 36 39 48 48 55 62 49 48 55 53 53 51 52 53 52 56 62 67 62 58 54 54 56 55 54 53 50 46 46 45 42 40 40 42 44 48 48 48
39 38 36 32 35 41 38 45 47 43 50 63 65 61 51 53 51 54 49 49 55 60 66 70 69 63 62 62 63 64 62 59 55 51 51 51 47 45 45 46 49 50 53 52
37 39 41 45 47 45 43 43 39 39 56 62 62 57 59 52 48 46 48 53 56 61 65 69 67 60 61 61 62 65 65 60 58 56 53 53 51 48 46 47 48 50 53 55
35 36 42 56 58 55 48 42 50 47 58 62 60 49 52 57 54 51 52 57 59 56 59 68 64 58 60 57 58 58 65 66 65 62 57 56 55 53 50 50 50 52 55 57
42 46 43 46 50 47 47 41 49 48 50 55 57 58 67 66 63 61 57 54 55 58 62 64 58 56 52 49 51 51 66 69 68 66 60 58 60 59 57 56 54 55 57 60
39 40 37 35 32 31 28 27 33 36 36 35 37 40 44 52 56 61 64 65 63 62 61 62 61 59 52 47 48 51 60 68 70 67 65 62 64 64 62 59 58 59 62 66
41 40 39 39 39 39 39 37 34 30 29 35 40 41 40 38 39 43 55 72 73 72 60 63 63 64 56 46 45 50 56 63 69 67 66 65 69 69 68 70 71 67 68 72
36 36 36 35 35 36 38 43 45 46 47 45 43 43 45 46 51 51 53 55 50 48 60 68 68 68 63 54 48 50 58 65 72 73 72 68 71 78 80 76 73 70 74 74
39 39 38 37 37 37 39 42 42 42 46 51 53 52 51 46 46 53 66 74 51 62 68 77 78 73 69 59 47 46 53 63 75 77 73 70 73 80 84 80 76 63 72 78
44 43 42 41 42 43 43 42 42 42 42 44 48 52 53 51 54 53 50 49 45 56 58 68 81 83 78 69 53 49 54 60 73 76 74 74 81 83 78 77 73 71 77 82
48 46 46 47 47 45 38 34 37 42 41 40 42 45 51 54 54 57 59 54 55 54 60 61 66 84 84 80 67 56 58 66 78 80 80 87 87 87 85 92 82 74 74 82
52 49 48 47 44 42 42 42 50 50 50 48 45 45 48 51 49 48 51 54 61 62 62 67 74 84 90 84 74 63 70 76 86 89 90 91 88 87 95 86 72 80 83 88
54 54 53 46 44 51 60 59 54 53 54 55 56 58 61 60 63 53 55 55 59 66 72 80 91 96 100 89 81 78 83 83 85 87 90 89 84 79 85 78 73 82 90 92
59 57 51 46 53 61 67 70 68 62 61 59 55 60 62 67 71 72 67 65 68 69 72 84 93 98 99 95 95 90 91 92 93 95 92 85 96 88 76 67 75 86 90 91
55 55 46 40 53 67 68 70 73 66 64 76 82 70 75 76 79 83 83 82 78 77 82 94 100 99 100 98 97 97 98 99 100 96 95 97 86 78 75 80 80 83 92 94
Wind_Speed
10 13 12 13 12 10 8 10 6 5 10 13 8 7 14 17 21 24 27 28 30 32 32 35 36 32 25 22 20 13 10 12 11 7 11 14 14 13 15 16 18 20 25 24
6 7 8 15 17 16 16 16 16 16 16 3 4 4 9 12 17 19 21 22 24 26 29 33 33 35 27 25 19 10 1 9 12 14 13 11 11 11 11 15 22 22 22 24
4 4 12 11 9 13 10 11 12 9 4 2 4 4 6 9 11 13 16 19 22 23 25 27 29 29 33 30 26 23 16 11 1 8 11 10 10 9 10 12 18 19 21 25
6 11 3 2 1 3 11 10 13 14 10 5 4 2 4 5 7 11 13 15 17 19 21 23 23 27 26 27 28 28 28 28 16 12 10 5 9 11 3 7 6 9 5 13
4 7 14 4 4 5 7 8 10 15 10 5 5 5 10 4 3 5 8 11 13 15 17 20 21 21 23 25 27 27 29 32 32 17 15 11 0 7 12 11 3 6 17 18
0 4 4 2 4 4 2 7 7 9 9 9 8 4 3 7 3 2 5 8 12 14 16 18 19 19 20 22 23 25 25 26 28 30 26 15 13 24 24 24 24 24 25 23
9 6 8 2 7 5 3 3 6 9 8 10 9 9 3 6 5 2 3 6 9 12 15 16 16 17 18 18 20 19 18 19 21 23 24 23 22 21 22 22 20 20 20 20
5 5 7 13 9 5 2 1 6 9 9 10 10 6 7 8 8 5 5 5 7 9 12 15 15 14 15 16 16 15 14 13 14 15 16 16 15 15 15 15 15 15 14 14
6 5 3 15 6 10 3 4 7 10 11 12 13 13 13 13 12 9 7 6 6 5 7 8 9 9 9 10 11 12 11 11 11 11 11 10 10 11 11 11 11 11 10 10
4 3 11 20 20 19 12 11 8 11 12 14 14 14 15 15 14 13 11 10 8 6 6 6 6 6 5 5 5 7 7 7 7 8 8 9 9 10 10 11 11 11 11 10
11 20 20 8 10 12 14 18 15 13 15 17 16 16 16 16 16 15 14 13 12 11 10 8 7 5 4 3 1 2 3 3 4 5 6 7 8 8 9 9 8 8 8 8
4 3 5 9 4 11 13 12 20 19 19 20 20 19 17 18 17 17 17 16 16 16 14 12 11 9 7 6 5 3 1 1 3 4 6 6 7 8 8 8 7 7 7 6
7 7 16 22 24 25 21 17 16 19 27 24 24 23 21 21 20 19 19 20 20 19 17 16 15 14 11 10 9 8 6 6 5 5 5 5 5 5 6 5 5 5 5 5
13 16 18 8 7 13 16 16 16 18 18 23 21 21 23 24 22 22 23 22 21 21 21 20 20 18 16 14 12 10 9 8 8 7 6 6 5 4 3 2 2 2 2 3
17 15 19 26 26 24 22 20 20 17 13 18 21 24 25 25 27 27 25 24 24 24 25 24 24 21 19 17 15 14 14 12 11 10 10 8 7 6 5 4 3 2 3 3
19 18 16 14 15 16 13 12 15 15 12 15 19 23 26 28 28 28 28 27 27 28 26 27 26 22 21 20 19 18 17 15 14 13 12 12 10 9 8 6 5 5 5 6
8 8 10 9 5 6 8 7 9 12 12 13 17 19 23 26 28 31 31 30 30 30 29 29 27 24 24 23 22 20 19 18 17 17 16 15 13 11 9 8 7 7 8 9
4 8 9 10 10 10 10 9 10 11 14 17 20 21 22 26 31 33 33 32 33 34 33 32 30 29 27 25 24 22 22 21 20 20 18 17 15 13 12 11 10 10 11 11
7 9 11 12 12 12 13 13 12 12 13 15 18 20 23 26 28 29 30 32 36 38 39 35 33 31 30 28 27 25 25 25 24 23 22 20 19 17 15 13 13 13 13 13
4 7 12 14 14 15 15 15 16 16 16 16 18 21 24 26 27 28 29 33 35 39 36 38 35 32 32 31 30 29 28 27 27 26 24 23 21 19 17 16 15 14 15 15
4 7 11 14 16 17 19 19 20 21 21 22 23 23 24 25 26 27 29 32 34 35 36 39 39 37 35 34 33 32 31 30 29 29 27 25 22 20 18 18 16 15 16 15
14 15 16 18 19 21 19 20 21 23 24 25 25 26 26 26 26 26 26 30 30 30 33 34 34 36 38 35 33 33 33 32 31 29 28 26 23 20 18 17 16 16 16 17
19 20 20 19 19 20 21 22 22 24 24 24 25 26 27 27 27 28 30 29 29 27 27 29 31 31 33 36 34 34 33 32 31 29 26 23 20 19 18 16 16 16 15 16
21 21 20 19 20 23 25 24 23 23 25 26 26 25 26 29 31 31 32 30 27 28 29 28 27 28 30 35 36 35 33 31 29 25 22 20 19 18 17 17 16 16 16 14
22 22 21 21 22 22 20 21 23 25 26 26 26 24 25 27 31 30 30 32 31 29 28 26 25 24 29 34 35 34 31 28 25 22 21 19 17 15 16 16 15 16 15 13
24 23 22 22 21 18 21 24 27 28 29 30 30 30 29 28 28 28 29 29 28 27 26 25 23 23 28 32 31 28 26 24 22 21 19 16 15 16 16 15 14 13 14 13
27 26 23 24 22 22 26 28 30 31 30 29 30 29 28 27 28 28 25 23 22 22 21 21 21 22 26 26 24 22 21 21 19 17 16 15 15 15 15 14 13 13 13 13
Wind_Direction
267 270 260 257 260 253 212 247 262 268 262 300 306 318 316 335 350 4 10 19 26 24 29 37 33 28 43 50 54 90 199 239 245 242 240 229 227 230 230 237 238 236 223 225
277 266 271 265 258 255 255 255 263 269 280 270 309 304 332 351 360 4 5 11 13 16 20 27 29 30 43 59 70 71 119 253 258 247 236 229 226 218 214 227 240 237 232 237
274 247 296 275 256 233 230 237 235 259 285 326 292 313 336 340 360 4 6 8 14 15 14 23 26 35 45 54 52 44 29 14 256 155 204 218 232 246 250 273 266 267 248 240
288 304 242 91 244 280 224 244 236 249 270 281 282 280 296 322 351 359 6 7 12 13 16 22 27 38 45 58 63 59 52 54 66 115 124 190 250 261 245 258 276 263 242 234
276 306 284 284 181 206 205 280 243 240 245 232 225 247 255 245 323 353 2 6 9 15 20 26 34 36 41 52 56 60 62 62 67 95 119 118 126 237 226 237 226 196 159 168
30 284 272 66 194 175 191 269 197 206 207 201 191 251 125 187 233 322 2 9 17 18 20 26 32 37 40 46 51 52 58 64 70 82 90 95 99 102 118 135 128 108 102 103
237 255 277 239 160 156 236 43 170 194 207 197 208 249 147 203 231 273 338 2 13 15 16 21 21 32 37 44 49 47 50 62 74 81 87 95 95 94 97 96 93 90 91 93
210 228 267 141 138 213 45 41 183 192 211 222 230 245 229 233 245 259 288 329 354 5 12 13 13 24 27 34 39 45 51 56 60 69 78 84 84 86 86 86 86 85 82 82
218 236 83 195 243 229 295 281 220 217 215 214 222 223 225 230 237 248 256 271 291 329 360 355 5 17 26 34 40 42 41 48 59 68 71 73 79 83 88 91 95 94 91 87
316 230 258 252 255 256 254 249 255 236 231 224 225 223 228 232 237 243 248 254 266 287 302 316 342 353 8 25 41 48 47 51 59 66 70 75 80 82 85 85 79 80 80 75
261 276 283 277 271 264 265 251 247 242 233 230 228 230 230 235 239 244 250 255 261 266 272 284 296 305 309 319 344 72 78 84 97 105 104 99 92 92 91 86 85 86 84 77
226 2 298 299 251 314 303 274 246 243 241 238 232 233 234 235 243 245 249 254 258 260 262 266 273 276 279 268 259 249 233 198 157 144 133 127 121 116 111 111 106 97 93 86
263 299 290 283 288 294 284 272 268 259 244 242 244 239 234 241 242 248 249 252 255 259 260 259 263 264 262 255 246 237 229 223 209 195 175 158 146 136 125 115 99 91 71 56
268 297 298 314 292 298 297 291 291 283 250 236 240 249 245 246 247 249 254 260 262 262 261 262 263 264 261 257 250 245 241 235 227 217 210 200 187 174 165 131 95 60 29 11
279 270 270 289 293 292 292 281 278 286 269 242 241 244 251 250 253 258 262 262 263 262 262 262 263 264 262 262 258 252 244 237 230 224 220 217 211 210 209 211 222 265 283 301
294 294 297 292 294 299 300 287 275 272 277 259 252 253 255 258 261 264 265 264 262 266 270 267 268 268 264 264 260 254 247 241 235 232 229 225 224 223 225 228 238 250 270 290
319 339 330 344 320 331 339 321 268 264 273 267 267 268 265 265 264 262 264 266 267 268 270 269 271 268 265 264 261 257 250 244 238 236 233 232 232 234 236 245 258 270 281 293
54 39 27 22 15 5 358 332 318 304 289 282 275 273 270 268 268 270 269 269 267 266 265 266 266 264 262 260 257 252 250 248 245 245 242 238 238 239 242 247 255 265 274 281
71 46 32 21 10 4 1 358 350 336 315 302 296 293 287 279 277 276 272 269 269 268 268 267 266 264 265 262 259 253 250 249 247 244 242 240 238 242 245 251 258 265 270 274
55 7 353 347 342 336 334 333 331 329 327 316 308 298 292 291 292 286 280 271 268 268 268 266 265 262 261 259 256 251 250 249 249 247 243 241 242 245 249 253 258 265 269 274
332 335 319 310 310 310 312 315 316 316 315 315 313 310 308 305 301 296 291 288 286 287 280 272 265 258 254 253 249 247 247 245 244 242 241 240 239 243 252 257 262 269 271 270
319 313 307 300 292 292 298 303 308 311 309 308 306 303 303 304 306 302 296 290 295 290 285 280 271 262 258 254 248 246 245 243 241 239 238 238 243 247 253 255 263 269 272 270
310 307 304 306 306 305 306 307 305 302 302 303 301 300 299 299 300 299 300 307 305 297 287 282 278 267 257 251 247 246 245 243 241 240 240 242 246 252 254 258 268 271 273 274
304 304 303 303 301 303 306 309 304 303 302 299 296 296 295 295 292 294 298 299 297 295 290 285 276 266 253 247 244 243 244 244 242 242 240 243 248 252 256 263 269 271 272 267
301 295 295 298 301 309 312 316 315 317 315 312 309 305 298 293 293 294 290 289 290 292 290 287 277 268 254 244 241 244 244 240 235 234 238 246 250 257 260 267 273 275 270 260
292 289 294 297 303 302 305 307 308 310 310 309 309 310 307 303 300 300 293 287 286 286 285 281 273 257 244 239 241 246 242 235 230 232 237 243 258 264 267 271 268 264 262 258
290 290 292 293 292 296 302 303 304 306 306 305 304 305 304 303 304 304 300 292 287 285 282 276 268 256 242 240 242 240 234 233 234 233 244 259 263 265 269 267 266 258 255 256